WMT9K EBCI-EDDF

Flight info

Callsign WMT9K
Flight time 0h 44m
Altitude 33000
Route RITAX M624 DIK M150 PITES Z111 TUTOV/N0413F230 Z111 RAMOB IMCOM1D
Aircraft A320/M-SDE3FGHIRWY/LB1

Departure

Time 2026-05-08 19:27
Airport Brussels South Charleroi Airport (EBCI)

Arrival

Time 2026-05-08 20:12
Airport Frankfurt Main Airport (EDDF)
Time Latitude Longitude Altitude Speed Heading
2026-05-08 18:46 50.46961 4.47393 559 ft 0 kts 334°
2026-05-08 19:15 50.46960 4.47393 559 ft 0 kts 335°
2026-05-08 19:15 50.46952 4.47399 559 ft 1 kts 335°
2026-05-08 19:15 50.46936 4.47410 559 ft 3 kts 335°
2026-05-08 19:15 50.46916 4.47433 558 ft 3 kts 288°
2026-05-08 19:16 50.46928 4.47502 547 ft 0 kts 240°
2026-05-08 19:16 50.46907 4.47426 558 ft 6 kts 240°
2026-05-08 19:16 50.46905 4.47421 558 ft 0 kts 242°
2026-05-08 19:18 50.46896 4.47392 559 ft 6 kts 244°
2026-05-08 19:19 50.46870 4.47304 561 ft 11 kts 245°
2026-05-08 19:19 50.46833 4.47177 566 ft 14 kts 245°
2026-05-08 19:19 50.46787 4.47020 572 ft 17 kts 245°
2026-05-08 19:19 50.46732 4.46835 577 ft 20 kts 246°
2026-05-08 19:20 50.46670 4.46621 583 ft 22 kts 247°
2026-05-08 19:20 50.46648 4.46546 585 ft 20 kts 231°
2026-05-08 19:20 50.46597 4.46555 585 ft 1 kts 166°
2026-05-08 19:20 50.46579 4.46558 585 ft 4 kts 174°
2026-05-08 19:21 50.46537 4.46547 585 ft 8 kts 214°
2026-05-08 19:21 50.46508 4.46459 587 ft 10 kts 244°
2026-05-08 19:21 50.46475 4.46347 589 ft 11 kts 246°
2026-05-08 19:21 50.46440 4.46228 592 ft 11 kts 245°
2026-05-08 19:22 50.46409 4.46121 596 ft 9 kts 245°
2026-05-08 19:22 50.46381 4.46023 599 ft 9 kts 245°
2026-05-08 19:22 50.46352 4.45923 602 ft 9 kts 245°
2026-05-08 19:22 50.46320 4.45814 606 ft 15 kts 245°
2026-05-08 19:23 50.46254 4.45587 606 ft 29 kts 247°
2026-05-08 19:23 50.46173 4.45306 605 ft 27 kts 244°
2026-05-08 19:23 50.46093 4.45029 601 ft 27 kts 246°
2026-05-08 19:23 50.46050 4.44874 600 ft 0 kts 245°
2026-05-08 19:24 50.46044 4.44855 600 ft 3 kts 245°
2026-05-08 19:24 50.46023 4.44801 600 ft 8 kts 234°
2026-05-08 19:24 50.45984 4.44783 599 ft 0 kts 154°
2026-05-08 19:25 50.45982 4.44784 599 ft 1 kts 161°
2026-05-08 19:25 50.45963 4.44792 599 ft 4 kts 164°
2026-05-08 19:26 50.45927 4.44808 599 ft 9 kts 164°
2026-05-08 19:26 50.45878 4.44907 599 ft 16 kts 68°
2026-05-08 19:26 50.45966 4.45223 602 ft 64 kts 65°
2026-05-08 19:26 50.46263 4.46244 591 ft 139 kts 65°
2026-05-08 19:27 50.46735 4.47884 770 ft 181 kts 65°
2026-05-08 19:27 50.47281 4.49749 1346 ft 195 kts 64°
2026-05-08 19:27 50.48000 4.51499 2220 ft 192 kts 44°
2026-05-08 19:27 50.48976 4.52894 3074 ft 197 kts 42°
2026-05-08 19:28 50.50013 4.54432 3565 ft 220 kts 44°
2026-05-08 19:28 50.51158 4.56247 3874 ft 249 kts 46°
2026-05-08 19:28 50.52383 4.58308 3891 ft 262 kts 47°
2026-05-08 19:28 50.53571 4.60523 3893 ft 264 kts 51°
2026-05-08 19:29 50.54688 4.62791 3894 ft 264 kts 52°
2026-05-08 19:29 50.55801 4.65083 3902 ft 266 kts 53°
2026-05-08 19:29 50.56707 4.67674 4240 ft 276 kts 78°
2026-05-08 19:29 50.56566 4.70611 5213 ft 274 kts 113°
2026-05-08 19:30 50.55588 4.73110 6074 ft 274 kts 127°
2026-05-08 19:30 50.54435 4.75543 6858 ft 279 kts 127°
2026-05-08 19:30 50.53308 4.77953 7774 ft 280 kts 126°
2026-05-08 19:30 50.52169 4.80450 8635 ft 283 kts 126°
2026-05-08 19:31 50.51046 4.82959 9451 ft 287 kts 125°
2026-05-08 19:31 50.49902 4.85545 10216 ft 292 kts 125°
2026-05-08 19:31 50.48716 4.88243 10709 ft 307 kts 124°
2026-05-08 19:31 50.47467 4.91093 11053 ft 326 kts 124°
2026-05-08 19:32 50.46149 4.94105 11462 ft 343 kts 124°
2026-05-08 19:32 50.44769 4.97256 11776 ft 360 kts 124°
2026-05-08 19:32 50.43330 5.00543 12177 ft 374 kts 124°
2026-05-08 19:32 50.41857 5.03904 12851 ft 378 kts 124°
2026-05-08 19:33 50.40367 5.07300 13571 ft 381 kts 124°
2026-05-08 19:33 50.38871 5.10707 14239 ft 385 kts 124°
2026-05-08 19:33 50.37337 5.14198 14898 ft 389 kts 124°
2026-05-08 19:33 50.35803 5.17685 15538 ft 392 kts 124°
2026-05-08 19:34 50.34255 5.21200 16163 ft 396 kts 124°
2026-05-08 19:34 50.32695 5.24735 16772 ft 399 kts 124°
2026-05-08 19:34 50.31095 5.28357 17376 ft 403 kts 124°
2026-05-08 19:34 50.29509 5.31944 17955 ft 406 kts 124°
2026-05-08 19:35 50.27904 5.35568 18521 ft 410 kts 124°
2026-05-08 19:35 50.26265 5.39263 19079 ft 413 kts 124°
2026-05-08 19:35 50.24630 5.42946 19619 ft 416 kts 124°
2026-05-08 19:35 50.22974 5.46669 20147 ft 420 kts 124°
2026-05-08 19:36 50.21302 5.50425 20664 ft 423 kts 124°
2026-05-08 19:36 50.19620 5.54198 21167 ft 426 kts 124°
2026-05-08 19:36 50.17947 5.57948 21657 ft 429 kts 124°
2026-05-08 19:36 50.16249 5.61746 22026 ft 428 kts 124°
2026-05-08 19:37 50.14531 5.65585 22081 ft 426 kts 125°
2026-05-08 19:37 50.12853 5.69327 21648 ft 424 kts 125°
2026-05-08 19:37 50.11161 5.73093 20974 ft 423 kts 125°
2026-05-08 19:37 50.09452 5.76814 20347 ft 420 kts 127°
2026-05-08 19:38 50.07635 5.80356 19772 ft 417 kts 130°
2026-05-08 19:38 50.05693 5.83693 19197 ft 413 kts 134°
2026-05-08 19:38 50.03690 5.86764 18918 ft 409 kts 136°
2026-05-08 19:38 50.01631 5.89852 18901 ft 411 kts 136°
2026-05-08 19:39 49.99543 5.92980 18899 ft 412 kts 136°
2026-05-08 19:39 49.97487 5.96055 18898 ft 412 kts 136°
2026-05-08 19:39 49.95403 5.99168 18898 ft 412 kts 136°
2026-05-08 19:39 49.93345 6.02230 18898 ft 412 kts 136°
2026-05-08 19:40 49.91277 6.05302 18898 ft 412 kts 136°
2026-05-08 19:40 49.89423 6.08676 18875 ft 412 kts 120°
2026-05-08 19:40 49.88440 6.12844 18893 ft 412 kts 100°
2026-05-08 19:40 49.88353 6.17248 18893 ft 411 kts 82°
2026-05-08 19:41 49.89122 6.21471 18710 ft 405 kts 68°
2026-05-08 19:41 49.90216 6.25467 18127 ft 403 kts 66°
2026-05-08 19:41 49.91360 6.29462 17456 ft 403 kts 65°
2026-05-08 19:41 49.92486 6.33395 17021 ft 398 kts 66°
2026-05-08 19:42 49.93596 6.37316 16901 ft 399 kts 66°
2026-05-08 19:42 49.94719 6.41316 16899 ft 400 kts 66°
2026-05-08 19:42 49.95809 6.45221 16898 ft 400 kts 66°
2026-05-08 19:42 49.96913 6.49193 16897 ft 400 kts 66°
2026-05-08 19:43 49.98017 6.53184 16897 ft 400 kts 66°
2026-05-08 19:43 49.99060 6.57153 16890 ft 400 kts 72°
2026-05-08 19:43 49.99688 6.61356 16753 ft 400 kts 79°
2026-05-08 19:43 50.00126 6.65751 16476 ft 421 kts 82°
2026-05-08 19:44 50.00563 6.70321 16221 ft 431 kts 81°
2026-05-08 19:44 50.01025 6.74890 15972 ft 430 kts 81°
2026-05-08 19:44 50.01305 6.77547 15827 ft 429 kts 80°
2026-05-08 19:44 50.01797 6.82111 15578 ft 427 kts 80°
2026-05-08 19:45 50.02296 6.86646 15329 ft 425 kts 80°
2026-05-08 19:45 50.02800 6.91189 15077 ft 423 kts 80°
2026-05-08 19:45 50.03297 6.95656 14829 ft 421 kts 80°
2026-05-08 19:45 50.03798 7.00161 14578 ft 418 kts 80°
2026-05-08 19:46 50.04288 7.04589 14329 ft 416 kts 80°
2026-05-08 19:46 50.04774 7.08982 14081 ft 413 kts 80°
2026-05-08 19:46 50.05740 7.17769 13580 ft 408 kts 80°
2026-05-08 19:47 50.06211 7.22080 13332 ft 405 kts 80°
2026-05-08 19:47 50.06674 7.26334 13019 ft 397 kts 80°
2026-05-08 19:47 50.07133 7.30562 12667 ft 389 kts 80°
2026-05-08 19:47 50.07577 7.34664 12334 ft 381 kts 80°
2026-05-08 19:48 50.08008 7.38661 12104 ft 370 kts 80°
2026-05-08 19:48 50.08425 7.42542 11878 ft 360 kts 80°
2026-05-08 19:48 50.08831 7.46342 11693 ft 349 kts 80°
2026-05-08 19:48 50.09222 7.50003 11566 ft 337 kts 79°
2026-05-08 19:49 50.09599 7.53552 11435 ft 326 kts 79°
2026-05-08 19:49 50.09959 7.56950 11308 ft 315 kts 79°
2026-05-08 19:49 50.10309 7.60252 11178 ft 305 kts 79°
2026-05-08 19:49 50.10646 7.63474 11049 ft 295 kts 81°
2026-05-08 19:50 50.10808 7.66613 10997 ft 282 kts 89°
2026-05-08 19:50 50.10706 7.69621 10996 ft 277 kts 98°
2026-05-08 19:50 50.10346 7.72591 10997 ft 277 kts 106°
2026-05-08 19:50 50.09803 7.75476 10998 ft 277 kts 108°
2026-05-08 19:51 50.09225 7.78333 10998 ft 277 kts 109°
2026-05-08 19:51 50.08649 7.81198 10998 ft 277 kts 107°
2026-05-08 19:51 50.08277 7.84160 10994 ft 278 kts 94°
2026-05-08 19:51 50.08308 7.87184 10996 ft 277 kts 81°
2026-05-08 19:52 50.08745 7.90093 10998 ft 276 kts 69°
2026-05-08 19:52 50.09410 7.92879 11001 ft 276 kts 66°
2026-05-08 19:52 50.10126 7.95661 11000 ft 276 kts 66°
2026-05-08 19:52 50.10838 7.98435 10999 ft 276 kts 66°
2026-05-08 19:53 50.11539 8.01220 11004 ft 276 kts 67°
2026-05-08 19:53 50.12236 8.04031 11030 ft 276 kts 67°
2026-05-08 19:53 50.12919 8.06811 10976 ft 277 kts 67°
2026-05-08 19:53 50.13607 8.09629 10822 ft 275 kts 67°
2026-05-08 19:54 50.14283 8.12409 10674 ft 274 kts 67°
2026-05-08 19:54 50.14955 8.15169 10525 ft 273 kts 66°
2026-05-08 19:54 50.15639 8.17954 10375 ft 272 kts 66°
2026-05-08 19:54 50.16308 8.20683 10227 ft 271 kts 66°
2026-05-08 19:55 50.16982 8.23444 10077 ft 270 kts 66°
2026-05-08 19:55 50.17640 8.26155 9929 ft 269 kts 66°
2026-05-08 19:55 50.18301 8.28889 9779 ft 267 kts 66°
2026-05-08 19:55 50.18954 8.31606 9630 ft 266 kts 66°
2026-05-08 19:56 50.19510 8.34331 9468 ft 267 kts 81°
2026-05-08 19:56 50.19345 8.37234 9301 ft 269 kts 111°
2026-05-08 19:56 50.18344 8.39632 9152 ft 267 kts 140°
2026-05-08 19:56 50.16755 8.41005 9001 ft 261 kts 170°
2026-05-08 19:57 50.14988 8.41023 8850 ft 254 kts 199°
2026-05-08 19:57 50.13361 8.39980 8713 ft 249 kts 217°
2026-05-08 19:57 50.12255 8.38054 8548 ft 240 kts 245°
2026-05-08 19:57 50.11500 8.35712 8414 ft 240 kts 247°
2026-05-08 19:58 50.10761 8.33381 8171 ft 240 kts 246°
2026-05-08 19:58 50.10012 8.31070 7921 ft 240 kts 246°
2026-05-08 19:58 50.09254 8.28772 7671 ft 240 kts 246°
2026-05-08 19:58 50.08475 8.26438 7417 ft 240 kts 245°
2026-05-08 19:59 50.07709 8.24161 7169 ft 240 kts 245°
2026-05-08 19:59 50.06923 8.21836 6916 ft 240 kts 245°
2026-05-08 19:59 50.06151 8.19554 6667 ft 240 kts 245°
2026-05-08 19:59 50.05375 8.17266 6417 ft 240 kts 245°
2026-05-08 20:00 50.04587 8.14941 6163 ft 240 kts 245°
2026-05-08 20:00 50.03814 8.12663 5914 ft 240 kts 246°
2026-05-08 20:00 50.03092 8.10319 5662 ft 239 kts 249°
2026-05-08 20:00 50.02477 8.07961 5415 ft 238 kts 252°
2026-05-08 20:01 50.01888 8.05539 5163 ft 238 kts 252°
2026-05-08 20:01 50.01309 8.03155 4914 ft 237 kts 252°
2026-05-08 20:01 50.00721 8.00740 4662 ft 237 kts 251°
2026-05-08 20:01 50.00140 7.98365 4414 ft 237 kts 251°
2026-05-08 20:02 49.99546 7.95941 4342 ft 242 kts 251°
2026-05-08 20:02 49.98949 7.93515 4764 ft 229 kts 251°
2026-05-08 20:02 49.98410 7.91341 4977 ft 209 kts 252°
2026-05-08 20:02 49.97864 7.89233 4983 ft 208 kts 243°
2026-05-08 20:03 49.96866 7.87627 4972 ft 213 kts 207°
2026-05-08 20:03 49.95429 7.87185 5009 ft 212 kts 172°
2026-05-08 20:03 49.94162 7.88058 5043 ft 194 kts 134°
2026-05-08 20:03 49.93480 7.89766 5022 ft 187 kts 108°
2026-05-08 20:04 49.93065 7.91693 5000 ft 192 kts 103°
2026-05-08 20:04 49.92676 7.93808 5019 ft 218 kts 103°
2026-05-08 20:04 49.92287 7.96201 4954 ft 235 kts 95°
2026-05-08 20:04 49.92181 7.98750 4964 ft 237 kts 88°
2026-05-08 20:05 49.92237 8.01291 4982 ft 236 kts 79°
2026-05-08 20:05 49.92585 8.03772 4992 ft 234 kts 69°
2026-05-08 20:05 49.93182 8.06123 4998 ft 233 kts 64°
2026-05-08 20:05 49.93831 8.08423 4998 ft 233 kts 64°
2026-05-08 20:06 49.94456 8.10738 4998 ft 233 kts 65°
2026-05-08 20:06 49.95032 8.13015 4984 ft 219 kts 66°
2026-05-08 20:06 49.95550 8.15167 4975 ft 205 kts 66°
2026-05-08 20:06 49.96021 8.17168 4902 ft 193 kts 66°
2026-05-08 20:07 49.96466 8.19081 4705 ft 185 kts 66°
2026-05-08 20:07 49.96901 8.20947 4423 ft 182 kts 67°
2026-05-08 20:07 49.97326 8.22773 4147 ft 179 kts 67°
2026-05-08 20:07 49.97751 8.24593 3874 ft 176 kts 67°
2026-05-08 20:08 49.98163 8.26354 3615 ft 174 kts 67°
2026-05-08 20:08 49.98577 8.28116 3368 ft 173 kts 67°
2026-05-08 20:08 49.98990 8.29869 3126 ft 173 kts 67°
2026-05-08 20:08 49.99406 8.31629 2887 ft 171 kts 68°
2026-05-08 20:09 49.99817 8.33366 2652 ft 171 kts 68°
2026-05-08 20:09 50.00223 8.35080 2447 ft 170 kts 68°
2026-05-08 20:09 50.00631 8.36803 2204 ft 167 kts 68°
2026-05-08 20:09 50.01030 8.38483 1954 ft 164 kts 68°
2026-05-08 20:10 50.01429 8.40159 1714 ft 164 kts 68°
2026-05-08 20:10 50.01820 8.41799 1482 ft 163 kts 68°
2026-05-08 20:10 50.02217 8.43468 1249 ft 163 kts 68°
2026-05-08 20:10 50.02606 8.45101 1036 ft 160 kts 68°
2026-05-08 20:11 50.02989 8.46705 804 ft 157 kts 68°
2026-05-08 20:11 50.03373 8.48300 539 ft 156 kts 68°
2026-05-08 20:11 50.03740 8.49843 376 ft 145 kts 68°
2026-05-08 20:11 50.04061 8.51170 358 ft 110 kts 70°
2026-05-08 20:12 50.04207 8.51811 357 ft 32 kts 69°
2026-05-08 20:12 50.04230 8.51985 357 ft 16 kts 83°
2026-05-08 20:12 50.04234 8.52187 358 ft 18 kts 97°
2026-05-08 20:12 50.04206 8.52250 357 ft 0 kts 168°
2026-05-08 20:13 50.04202 8.52255 357 ft 1 kts 125°
2026-05-08 20:13 50.04195 8.52334 357 ft 13 kts 97°
2026-05-08 20:13 50.04191 8.52535 357 ft 22 kts 88°
2026-05-08 20:13 50.04229 8.52803 356 ft 28 kts 69°
2026-05-08 20:14 50.04303 8.53109 351 ft 30 kts 69°
2026-05-08 20:14 50.04374 8.53404 350 ft 28 kts 68°
2026-05-08 20:14 50.04402 8.53686 351 ft 25 kts 81°
2026-05-08 20:14 50.04424 8.53949 353 ft 23 kts 84°
2026-05-08 20:15 50.04441 8.54195 352 ft 22 kts 86°
2026-05-08 20:15 50.04451 8.54435 351 ft 22 kts 92°
2026-05-08 20:15 50.04405 8.54654 351 ft 20 kts 127°
2026-05-08 20:15 50.04337 8.54746 351 ft 0 kts 147°
2026-05-08 20:16 50.04329 8.54754 351 ft 2 kts 149°
2026-05-08 20:16 50.04326 8.54757 351 ft 0 kts 149°
2026-05-08 20:18 50.04324 8.54758 351 ft 2 kts 149°
2026-05-08 20:19 50.04278 8.54796 351 ft 12 kts 153°
2026-05-08 20:19 50.04173 8.54852 350 ft 16 kts 162°
2026-05-08 20:19 50.04059 8.54915 348 ft 18 kts 160°
2026-05-08 20:19 50.04028 8.55062 349 ft 15 kts 68°
2026-05-08 20:20 50.04063 8.55207 352 ft 13 kts 69°
2026-05-08 20:20 50.04094 8.55339 353 ft 12 kts 69°
2026-05-08 20:20 50.04125 8.55465 355 ft 12 kts 69°
2026-05-08 20:20 50.04154 8.55587 354 ft 12 kts 69°
2026-05-08 20:21 50.04187 8.55724 354 ft 13 kts 69°
2026-05-08 20:21 50.04217 8.55859 355 ft 12 kts 70°
2026-05-08 20:21 50.04222 8.55881 355 ft 0 kts 68°
2026-05-08 20:22 50.04226 8.55894 355 ft 4 kts 64°
2026-05-08 20:22 50.04239 8.55943 356 ft 4 kts 69°
2026-05-08 20:22 50.04251 8.55993 356 ft 5 kts 69°
2026-05-08 20:23 50.04269 8.56068 358 ft 8 kts 69°
2026-05-08 20:23 50.04296 8.56181 359 ft 13 kts 70°
2026-05-08 20:23 50.04333 8.56339 360 ft 17 kts 69°
2026-05-08 20:23 50.04378 8.56524 364 ft 19 kts 69°
2026-05-08 20:24 50.04411 8.56663 364 ft 0 kts 69°
2026-05-08 20:24 50.04416 8.56687 365 ft 3 kts 69°
2026-05-08 20:24 50.04424 8.56719 366 ft 0 kts 70°
2026-05-08 20:25 50.04430 8.56746 366 ft 13 kts 69°
2026-05-08 20:25 50.04488 8.56986 369 ft 26 kts 69°
2026-05-08 20:25 50.04549 8.57241 370 ft 24 kts 69°
2026-05-08 20:25 50.04607 8.57483 369 ft 23 kts 69°
2026-05-08 20:26 50.04662 8.57715 369 ft 22 kts 69°
2026-05-08 20:26 50.04726 8.57922 372 ft 19 kts 41°
2026-05-08 20:26 50.04791 8.58076 377 ft 15 kts 68°
2026-05-08 20:26 50.04827 8.58225 379 ft 14 kts 69°
2026-05-08 20:27 50.04861 8.58370 378 ft 14 kts 69°
2026-05-08 20:27 50.04901 8.58541 374 ft 18 kts 69°
2026-05-08 20:27 50.04949 8.58743 371 ft 20 kts 69°
2026-05-08 20:27 50.04996 8.58940 370 ft 9 kts 69°
2026-05-08 20:28 50.05004 8.59041 369 ft 10 kts 133°
2026-05-08 20:28 50.04989 8.59057 368 ft 5 kts 153°
2026-05-08 20:28 50.04944 8.59084 366 ft 0 kts 160°